Location: Alta
(39.2070°N, 120.8111°W)
Time: 07:41:28
(UTC+00:00)

N. Korean satellite - Visible Passes

Search period start: 04 December 2022 00:00
Search period end: 14 December 2022 00:00
Orbit: 421 x 453 km, 97.3° (Epoch: 03 December)

Date Brightness Start Highest point End Pass type
(mag) Time Alt. Az. Time Alt. Az. Time Alt. Az.
04 Dec 9.7 01:32:09 10° SW 01:34:07 15° W 01:36:06 10° WNW visible
04 Dec 8.3 12:51:42 10° NNE 12:54:44 30° E 12:57:43 10° SSE visible
04 Dec 8.2 14:25:15 10° NW 14:26:56 13° WNW 14:28:36 10° W visible
05 Dec 6.7 13:45:05 10° N 13:48:18 41° WNW 13:51:28 10° SW visible
06 Dec 7.3 13:06:08 10° NNE 13:09:25 49° E 13:12:40 10° S visible
07 Dec 8.7 01:06:43 10° SSW 01:09:44 30° W 01:12:47 10° NNW visible
07 Dec 9.6 12:28:22 10° ENE 12:30:17 14° E 12:32:11 10° SE visible
07 Dec 7.3 13:59:56 10° NNW 14:02:49 26° WNW 14:05:38 10° SW visible
08 Dec 6.3 13:20:33 10° NNE 13:23:56 83° E 13:27:16 10° S visible
09 Dec 9.5 01:21:43 10° SW 01:24:17 20° W 01:26:51 10° NW visible
09 Dec 8.9 12:42:08 10° NE 12:44:49 22° E 12:47:28 10° SSE visible
09 Dec 7.9 14:14:51 10° NNW 14:17:08 17° WNW 14:19:24 10° WSW visible
10 Dec 6.3 13:34:58 10° N 13:38:17 59° WNW 13:41:33 10° SSW visible
11 Dec 9.8 01:37:03 10° WSW 01:38:42 13° W 01:40:22 10° WNW visible
11 Dec 8.0 12:56:05 10° NNE 12:59:11 34° E 13:02:13 10° SSE visible
11 Dec 8.3 14:30:07 10° NW 14:31:19 12° WNW 14:32:30 10° W visible
12 Dec 9.9 12:19:31 10° E 12:19:49 10° E 12:20:07 10° E visible
12 Dec 6.9 13:49:22 10° N 13:52:28 36° WNW 13:55:31 10° SW visible
13 Dec 7.0 13:10:32 13° NNE 13:13:22 55° E 13:16:37 10° S visible
